EHI
0 0 0 0 0 0 0 0 0 0 0 0 0 0 0 0 0 0 0 0 0 0 0 0 0 0 0 0 0 0 0 0 0 0 0 0 0 0
0 0 0 0 0 0 0 0 0 0 0 0 0 0 0 0 0 0 0 0 0 0 0 0 0 0 0 0 0 0 0 0 0 0 0 0 0 0
0 0 0 0 0 0 0 0 0 0 0 0 0 0 0 0 0 0 0 0 0 0 0 0 0 0 0 0 0 0 0 0 0 0 0 0 0 0
0 0 0 0 0 0 0 0 0 0 0 0 0 0 0 0 0 0 0 0 0 0 0 0 0 0 0 0 0 0 0 0 0 0 0 0 0 0
0 0 0 0 0 0 0 0 0 0 0 0 0 0 0 0 0 0 0 0 0 0 0 0 0 0 0 0 0 0 0 0 0 0 0 0 0 0
0 0 0 0 0 0 0 0 0 0 0 0 0 0 0 0 0 0 0 0 0 0 0 0 0 0 0 0 0 0 0 0 0 0 0 0 0 0
0 0 0 0 0 0 0 0 0 0 0 0 0 0 0 0 0 0 0 0 0 0 0 0 0 0 0 0 0 0 0 0 0 0 0 0 0 0
0 0 0 0 0 0 0 0 0 0 0 0 0 0 0 0 0 0 0 0 0 0 0 0 0 0 0 0 0 0 0 0 0 0 0 0 0 0
0 0 0 0 0 0 0 0 0 0 0 0 0 0 0 0 0 0 0 0 0 0 0 0 0 0 0 0 0 0 0 0 0 0 0 0 0 0
0 0 0 0 0 0 0 0 0 0 0 0 0 0 0 0 0 0 0 0 0 0 0 0 0 0 0 0 0 0 0 0 0 0 0 0 0 0
0 0 0 0 0 0 0 0 0 0 0 0 0 0 0 0 0 0 0 0 0 0 0 0 0 0 0 0 0 0 0 0 0 0 0 0 0 0
0 0 0 0 0 0 0 0 0 0 0 0 0 0 0 0 0 0 0 0 0 0 0 0 0 0 0 0 0 0 0 0 0 0 0 0 0 0
0 0 0 0 0 0 0 0 0 0 0 0 0 0 0 0 0 0 0 0 0 0 0 0 0 0 0 0 0 0 0 0 0 0 0 0 0 0
0 0 0 0 0 0 0 0 0 0 0 0 0 0 0 0 0 0 0 0 0 0 0 0 0 0 0 0 0 0 0 0 0 0 0 0 0 0
0 0 0 0 0 0 0 0 0 0 0 0 0 0 0 0 0 0 0 0 0 0 0 0 0 0 0 0 0 0 0 0 0 0 0 0 0 0
0 0 0 0 0 0 0 0 0 0 0 0 0 0 0 0 0 0 0 0 0 0 0 0 0 0 0 0 0 0 0 0 0 0 0 0 0 0
0 0 0 0 0 0 0 0 0 0 0 0 0 0 0 0 0 0 0 0 0 0 0 0 0 0 0 0 0 0 0 0 0 0 0 0 0 0
0 0 0 0 0 0 0 0 0 0 0 0 0 0 0 0 0 0 0 0 0 0 0 0 0 0 0 0 0 0 0 0 0 0 0 0 0 0
0 0 0 0 0 0 0 0 0 0 0 0 0 0 0 0 0 0 0 0 0 0 0 0 0 0 0 0 0 0 0 0 0 0 0 0 0 0
0 0 0 0 0 0 0 0 0 0 0 0 0 0 0 0 0 0 0 0 0 0 0 0 0 0 0 0 0 0 0 0 0 0 0 0 0 0
0 0 0 0 0 0 0 0 0 0 0 0 0 0 0 0 0 0 0 0 0 0 0 0 0 0 0 0 0 0 0 0 0 0 0 0 0 0
0 0 0 0 0 0 0 0 0 0 0 0 0 0 0 0 0 0 0 0 0 0 0 0 0 0 0 0 0 0 0 0 0 0 0 0 0 0
0 0 0 0 0 0 0 0 0 0 0 0 0 0 0 0 0 0 0 0 0 0 0 0 0 0 0 0 0 0 0 0 0 0 0 0 0 0
Wind_Speed
7 8 7 6 5 5 4 4 5 7 8 5 3 4 4 5 7 6 7 11 14 15 15 14 14 14 14 13 14 13 13 12 11 12 13 14 14 14
6 7 8 6 5 5 5 5 5 6 8 5 4 4 5 6 8 7 7 12 13 15 15 15 14 13 13 13 13 13 12 11 11 12 13 14 14 14
7 8 9 7 6 6 5 5 6 5 8 7 4 4 5 6 6 6 6 7 7 13 15 15 13 12 12 12 13 13 12 11 11 12 13 13 14 14
9 9 9 7 7 6 6 7 6 6 7 9 6 4 6 6 6 7 6 6 6 11 13 13 12 12 12 13 12 12 11 11 11 11 12 13 13 13
9 9 9 8 8 6 7 7 6 6 5 7 7 5 5 4 5 6 6 5 6 7 9 11 12 13 12 13 11 11 10 10 10 10 11 11 12 12
9 9 9 9 9 8 7 7 6 6 5 6 6 5 5 4 4 5 5 4 5 5 6 7 9 11 12 12 11 10 10 10 10 10 10 10 10 11
8 9 9 10 12 10 8 7 7 6 5 5 6 5 5 4 5 4 6 4 5 4 4 4 4 5 6 8 9 9 9 9 10 10 10 10 10 11
9 9 8 9 11 13 14 13 11 9 7 6 6 7 7 6 5 5 4 4 5 3 3 4 3 4 4 4 7 9 9 9 9 10 10 10 10 10
8 8 7 7 10 8 10 12 12 14 13 10 9 9 8 7 6 6 6 6 7 3 2 4 3 4 3 4 8 9 9 9 9 9 9 9 9 9
8 8 8 8 8 8 7 7 8 8 10 9 9 9 9 7 7 7 6 5 4 3 3 4 3 3 3 3 7 9 8 8 8 8 8 8 7 8
7 7 7 7 10 11 8 8 8 7 9 12 12 12 13 13 9 4 4 4 5 4 2 3 2 2 2 2 3 6 6 6 7 8 7 7 7 6
6 6 9 10 11 11 8 7 9 8 6 7 7 9 9 9 11 8 7 6 4 4 3 3 2 1 1 1 2 2 3 5 6 7 7 6 6 3
5 5 5 10 12 12 11 8 10 9 6 6 5 5 4 4 5 5 5 5 5 4 4 3 2 2 2 2 1 1 2 2 2 3 5 6 6 4
6 5 5 10 12 12 10 10 12 9 4 4 4 4 3 4 4 3 4 4 4 4 5 4 3 4 3 3 2 1 1 2 2 2 2 4 4 5
5 9 11 12 11 8 8 9 8 4 3 4 4 4 3 3 3 2 1 1 0 1 3 4 4 3 3 3 3 2 2 2 2 2 2 2 2 2
6 7 10 9 8 7 7 5 3 3 3 4 3 3 2 2 2 2 2 1 0 1 1 1 3 4 3 3 3 3 3 2 2 2 2 2 2 2
7 4 4 4 3 3 3 3 3 2 2 2 2 2 2 2 2 2 1 1 1 2 1 0 1 1 1 2 2 3 2 2 2 2 1 1 2 2
7 4 4 4 4 4 4 4 3 3 2 2 2 2 2 2 2 1 1 2 2 2 2 1 1 1 1 1 1 3 2 2 1 2 1 1 1 1
4 4 4 4 4 4 4 4 4 3 2 2 2 2 2 2 2 2 2 1 2 2 1 2 2 2 2 1 1 1 2 2 1 1 1 1 1 1
3 4 4 4 4 4 3 3 3 3 2 2 2 2 2 2 2 2 2 2 2 1 1 1 2 3 3 2 2 0 2 2 2 2 1 1 1 1
4 4 4 4 4 4 3 3 3 3 3 2 2 2 2 2 2 2 2 3 2 2 2 2 2 2 2 2 2 1 1 1 1 2 3 2 1 1
5 4 4 4 4 4 4 3 3 3 2 2 2 2 1 2 2 2 2 2 2 2 2 1 1 2 2 3 3 2 2 2 4 4 2 2 3 3
5 5 5 4 4 4 3 4 4 3 2 2 1 2 2 1 1 1 2 2 2 2 2 1 1 2 2 3 3 3 3 3 2 3 3 3 3 2
Wind_Direction
234 233 233 233 230 230 227 224 239 266 267 256 249 243 249 254 255 253 257 262 261 260 258 257 258 255 250 247 244 242 242 241 240 240 243 247 250 253
238 238 238 235 232 230 230 231 232 246 264 255 253 261 259 266 263 258 254 263 263 262 259 256 255 252 248 243 240 240 238 236 236 240 246 248 251 253
245 242 243 239 235 232 229 231 234 236 259 272 265 264 255 261 269 263 260 257 258 260 260 257 251 249 247 241 238 237 235 234 234 238 245 248 250 252
247 246 245 241 238 234 232 234 236 235 247 267 274 267 257 253 259 265 268 264 260 261 258 255 252 250 249 241 234 233 232 232 233 237 243 246 249 251
244 244 245 239 241 238 234 238 241 247 246 256 269 270 268 260 264 271 267 266 269 264 258 254 250 251 249 239 231 229 229 230 234 237 241 244 246 250
245 243 241 236 236 235 237 237 240 246 249 253 265 270 269 261 251 260 268 263 267 271 263 258 253 250 245 237 230 229 228 229 232 236 240 244 247 251
250 246 242 242 242 243 242 234 232 239 243 250 262 271 268 258 249 250 259 271 270 253 253 254 248 241 234 228 225 224 228 232 234 237 242 245 246 249
255 253 247 244 246 250 252 249 242 239 240 244 256 256 264 261 257 252 254 263 269 238 237 263 242 249 241 223 226 227 230 234 235 239 245 247 246 247
254 255 258 253 254 243 249 252 250 250 246 244 249 252 255 251 248 255 253 253 256 242 228 266 246 251 249 234 230 231 233 235 236 241 245 247 246 246
250 246 249 250 247 249 246 247 245 246 245 245 244 250 254 251 240 245 252 267 277 261 217 246 247 251 261 236 226 229 231 233 239 245 245 241 243 248
259 255 253 250 256 261 255 252 259 261 259 256 255 257 257 257 253 240 235 242 262 257 223 221 234 258 273 251 224 217 222 237 245 246 241 240 243 246
270 260 260 263 265 264 254 248 255 261 263 267 264 263 256 248 246 236 224 229 239 247 209 195 210 196 283 267 222 216 225 241 246 242 238 234 233 228
284 278 267 275 274 272 268 255 257 265 260 258 265 264 259 252 247 242 227 219 222 237 203 182 205 208 217 258 278 240 224 238 242 236 231 226 227 223
287 285 284 286 285 282 277 268 269 271 260 257 261 261 259 261 257 247 236 233 233 228 203 196 206 209 209 240 250 241 246 233 231 246 242 232 231 230
291 291 293 293 293 287 284 286 281 262 244 252 257 262 258 251 249 244 236 223 322 231 213 214 202 202 209 217 219 218 253 255 225 221 225 220 219 218
300 298 298 294 292 289 291 290 280 260 247 245 256 263 262 257 251 235 213 191 152 340 344 205 198 190 199 208 208 226 223 222 216 205 209 230 215 209
304 301 302 304 302 298 295 290 288 269 262 256 257 264 262 262 261 224 196 187 210 220 250 359 95 117 192 194 202 212 208 223 214 193 187 238 235 213
313 302 301 301 300 300 299 298 295 277 260 263 254 246 249 246 244 216 190 197 203 204 199 188 143 103 61 354 222 201 201 213 201 173 164 192 251 225
314 303 301 301 300 299 300 298 298 292 275 262 261 257 251 237 221 207 202 203 208 202 201 197 191 173 179 239 307 195 189 181 148 149 166 172 213 231
309 304 303 303 300 297 295 294 296 299 281 263 262 260 249 232 221 209 204 198 199 198 201 206 208 201 198 190 176 178 178 171 154 159 141 95 84 77
310 306 303 301 298 298 296 294 292 294 287 274 263 262 243 220 224 210 199 195 196 193 204 229 232 180 134 108 103 85 56 70 145 168 148 121 92 79
313 310 308 307 304 302 300 298 298 302 299 283 278 269 250 228 226 219 199 188 189 195 214 218 131 128 126 140 146 129 93 60 59 73 98 146 156 165
320 317 312 309 307 306 305 304 302 304 304 285 274 267 245 227 226 212 189 185 180 181 175 163 131 112 121 131 133 123 113 96 81 72 53 57 91 123